This demonstration page uses our WeatherBlox Daily Observations layout. Learn more.

Left ArrowRight Arrow

34.02893, -84.19858

Hourly Observations for July 6, 2018

Temp ( °F °C ) Dew Point ( °F °C ) Humidity (%) Winds ( mph kmh ) Pressure ( in mb ) Visibility ( mi km ) Precip ( " mm )
12:53 am 00:53 Partly Cloudy 75 23.9 73 22.8 94 94 Calm 30.19 1022 10 16 0.00 0.00
1:53 am 01:53 Clear 75 23.9 72 22.2 90 90 Calm 30.18 1022 10 16 0.00 0.00
2:53 am 02:53 Clear 73 22.8 72 22.2 96 96 Calm 30.17 1022 10 16 0.00 0.00
3:53 am 03:53 Clear 73 22.8 72 22.2 96 96 Calm 30.17 1022 9 14 0.00 0.00
4:53 am 04:53 Clear 73 22.8 72 22.2 96 96 Calm 30.16 1021 9 14 0.00 0.00
5:53 am 05:53 Clear 72 22.2 71 21.7 97 97 Calm 30.16 1022 10 16 0.00 0.00
6:53 am 06:53 Mostly Cloudy 73 22.8 72 22.2 96 96 Calm 30.18 1022 8 13 0.00 0.00
7:53 am 07:53 Sunny 75 23.9 73 22.8 94 94 Calm 30.17 1022 9 14 0.00 0.00
8:53 am 08:53 Sunny 80 26.7 71 21.7 74 74 WNW 5 7 30.17 1022 10 16 0.00 0.00
9:53 am 09:53 Sunny 82 27.8 71 21.7 69 69 NW 6 9 30.17 1022 10 16 0.00 0.00
10:53 am 10:53 Sunny 85 29.4 72 22.2 65 65 NNE 8 13 30.16 1021 10 16 0.00 0.00
11:53 am 11:53 Mostly Sunny 87 30.6 72 22.2 61 61 N 5 7 30.16 1021 10 16 0.00 0.00
12:53 pm 12:53 Mostly Cloudy 86 30 70 21.1 59 59 Calm 30.14 1021 10 16 0.00 0.00
1:53 pm 13:53 Mostly Sunny 89 31.7 70 21.1 53 53 Calm 30.11 1020 10 16 0.00 0.00
2:53 pm 14:53 Mostly Cloudy 89 31.7 68 20 50 50 Calm 30.07 1018 10 16 0.00 0.00
3:53 pm 15:53 Cloudy with Light Rain 79 26.1 74 23.3 85 85 Calm 30.05 1018 5 8 0.02 0.51
4:19 pm 16:19 Cloudy with Thunderstorms 83 28.3 71 21.7 67 67 W 5 7 30.03 1017 10 16 0.00 0.03
4:41 pm 16:41 Mostly Cloudy with Nearby Thunderstorms 81 27.2 73 22.8 77 77 N 10 17 30.03 1017 10 16 0.00 0.03
4:53 pm 16:53 Mostly Cloudy with Nearby Thunderstorms 80 26.7 71 21.7 74 74 N 9 15 30.05 1018 10 16 0.00 0.03
5:11 pm 17:11 Cloudy with Strong Thunderstorms 78 25.6 71 21.7 79 79 ESE 9 15 30.03 1017 1 2 0.19 4.83
5:40 pm 17:40 Cloudy with Strong Thunderstorms 72 22.2 71 21.7 97 97 WSW 12 19 30.09 1019 1 2 0.94 23.88
5:53 pm 17:53 Cloudy with Thunderstorms 72 22.2 71 21.7 97 97 WSW 8 13 30.08 1019 1 2 1.05 26.67
6:20 pm 18:20 Cloudy with Light Rain 72 22.2 71 21.7 97 97 S 7 11 30.06 1018 1 2 0.06 1.52
6:38 pm 18:38 Cloudy with Light Rain 73 22.8 72 22.2 96 96 Calm 30.06 1018 8 13 0.07 1.78
6:53 pm 18:53 Partly Cloudy 73 22.8 71 21.7 94 94 W 3 6 30.07 1018 10 16 0.07 1.78
7:04 pm 19:04 Mostly Cloudy with Nearby Thunderstorms 74 23.3 71 21.7 91 91 Calm 30.09 1019 10 16 0.00 0.00
7:19 pm 19:19 Cloudy 73 22.8 72 22.2 96 96 SE 7 11 30.12 1020 9 14 0.00 0.00
7:50 pm 19:50 Cloudy with Nearby Thunderstorms 73 23 72 22 94 94 Calm 30.12 1020 10 16 0.00 0.00
7:53 pm 19:53 Cloudy with Nearby Thunderstorms 74 23.3 72 22.2 94 94 Calm 30.09 1019 10 16 0.00 0.00
8:08 pm 20:08 Mostly Cloudy 74 23.3 71 21.7 91 91 NW 3 6 30.09 1019 10 16 0.00 0.00
8:53 pm 20:53 Mostly Clear N/A N/A N/A undefined N/A N/A N/A 0.00 0.00
9:53 pm 21:53 Mostly Clear N/A N/A N/A undefined N/A N/A N/A 0.00 0.00
10:53 pm 22:53 undefined N/A N/A N/A undefined N/A N/A N/A 0.00 0.00
11:53 pm 23:53 undefined N/A N/A N/A undefined N/A N/A N/A 0.00 0.00

Powered by AerisWeather